CST,Max TemperatureF,Mean TemperatureF,Min TemperatureF,Max Dew PointF,MeanDew PointF,Min DewpointF,Max Humidity, Mean Humidity, Min Humidity, Max Sea Level PressureIn, Mean Sea Level PressureIn, Min Sea Level PressureIn, Max VisibilityMiles, Mean VisibilityMiles, Min VisibilityMiles, Max Wind SpeedMPH, Mean Wind SpeedMPH, Max Gust SpeedMPH,PrecipitationIn, CloudCover, Events, WindDirDegrees
2012-12-1,61,45,28,53,41,27,96,84,72,30.11,29.96,29.83,10,6,2,16,8,21,0.00,5,,141
2012-12-2,59,50,41,53,48,41,100,90,80,30.03,29.96,29.84,10,3,0,13,3,17,0.00,6,Fog,84
2012-12-3,69,56,43,59,52,39,100,82,63,29.97,29.85,29.73,10,6,0,26,12,32,0.01,6,Fog,176
2012-12-4,60,49,38,38,32,24,85,57,29,30.34,30.17,29.98,10,10,10,21,7,25,0.00,0,,294
2012-12-5,43,35,27,30,23,17,76,58,39,30.45,30.32,30.15,10,10,10,15,8,22,0.00,0,,95
2012-12-6,51,44,36,40,35,30,82,68,54,30.14,29.99,29.90,10,10,7,13,7,18,0.05,4,Rain,195
2012-12-7,43,40,37,40,35,32,93,82,70,29.96,29.93,29.89,10,9,6,14,6,16,0.12,8,Rain,43
2012-12-8,42,38,34,34,32,30,96,83,70,30.06,30.01,29.91,10,8,4,21,7,25,0.03,7,Rain,43
2012-12-9,40,33,26,38,33,21,100,88,75,30.02,29.85,29.77,10,6,1,26,12,32,0.09,8,Rain,22
2012-12-10,27,23,19,21,19,16,91,83,74,30.03,29.92,29.82,10,10,9,23,12,31,T,7,,278
2012-12-11,36,26,16,22,18,13,84,70,56,30.14,30.05,30.00,10,10,10,16,9,23,0.00,1,,215
2012-12-12,48,38,27,24,22,19,69,54,38,30.25,30.20,30.14,10,10,10,18,10,26,0.00,0,,187
2012-12-13,50,37,24,25,22,20,85,61,36,30.21,30.15,30.09,10,10,10,21,10,28,0.00,0,,200
2012-12-14,51,37,22,39,28,19,96,70,44,30.17,30.08,29.94,10,10,9,12,4,16,0.16,2,Rain,135
2012-12-15,50,45,40,47,43,37,96,91,86,29.91,29.63,29.51,10,7,2,21,11,26,0.40,8,Rain,185
2012-12-16,48,42,35,43,36,32,92,86,79,29.77,29.69,29.59,10,8,3,22,10,25,0.00,8,,284
2012-12-17,35,33,30,32,29,27,92,85,78,29.77,29.75,29.70,10,5,2,9,4,13,0.00,8,,300
2012-12-18,45,38,30,37,32,28,96,83,70,29.90,29.68,29.54,10,6,2,23,11,31,0.00,8,,188
2012-12-19,37,35,33,36,32,29,100,88,76,30.05,29.91,29.63,8,6,2,26,10,31,0.32,8,Rain-Thunderstorm,71
2012-12-20,40,30,19,39,31,14,92,85,77,29.84,29.41,29.19,8,3,0,39,24,54,1.48,8,Fog-Rain-Snow-Thunderstorm,352
2012-12-21,24,18,12,13,10,7,80,70,59,30.29,30.14,29.84,10,10,7,35,16,44,0.00,1,Snow,296
2012-12-22,30,18,5,19,12,2,91,72,53,30.28,30.13,29.98,10,10,6,14,3,17,0.00,0,,150
2012-12-23,28,20,12,22,16,9,96,80,63,30.06,30.01,29.96,10,8,6,14,6,16,0.00,3,,47
2012-12-24,28,25,22,23,21,18,88,83,78,30.19,30.00,29.89,10,6,2,16,7,20,0.01,8,Snow,328
2012-12-25,25,20,14,19,12,8,81,72,62,30.39,30.29,30.16,10,10,10,14,7,17,0.00,4,,10
2012-12-26,27,24,20,19,17,12,81,75,68,30.24,30.17,30.12,10,10,8,18,10,25,0.00,8,,358
2012-12-27,28,19,10,24,17,7,92,78,63,30.26,30.18,30.12,10,10,9,14,5,15,0.00,6,,76
2012-12-28,31,29,27,26,24,21,92,84,75,30.10,29.99,29.91,10,7,4,9,4,12,T,8,,120
2012-12-29,28,19,9,25,16,7,92,82,71,30.30,30.10,29.92,10,7,2,23,11,29,T,6,Snow,291
2012-12-30,36,21,6,23,15,3,92,74,56,30.37,30.24,30.06,10,8,5,20,7,28,0.00,0,,189
2012-12-31,36,27,18,24,16,9,77,67,56,30.21,30.13,30.05,10,10,10,18,11,26,0.00,6,,292